{"data":{"norad_id":55484,"epoch":"2026-09-20T14:47:29.081184Z","epoch_age_seconds":90057,"freshness":"FRESH","line1":"1 55484U 23015AM  26263.61630881 -.00000756  00000+0 -17954-4 0  9998","line2":"2 55484  43.0052 319.1561 0001807 285.2588  74.8064 15.27570447200409","mean_motion":15.27570447,"eccentricity":0.0001807,"inclination_deg":43.0052,"raan_deg":319.1561,"arg_perigee_deg":285.2588,"mean_anomaly_deg":74.8064,"bstar":-1.7954e-5,"rev_number":20040,"period_min":94.267338231636,"perigee_km":481.83787981087,"apogee_km":484.31752280393,"semimajor_km":6861.2147013074,"source":"CELESTRAK","updated_at":"2026-09-21T09:00:33.235759Z"}}